User: anonymous
Location: Voyageurs National Park
(48.5020°N, 92.9292°W)
Time: 05:15:40
(UTC-05:00)
Language:

Terra - Orbit

View from above orbital plane
View from above orbital plane
View from above satellite
View from above satellite

Ground track
Ground track

The orbit data is extracted from the following two-line orbital elements,

1 25994U 99068A   14110.83151430  .00000838  00000-0  19606-3 0  1618
2 25994 098.2141 186.3496 0001458 105.3823 254.7510 14.57132705762715
Epoch (UTC): 20 April 2014 19:57:22
Eccentricity: 0.0001458
inclination: 98.2141°
perigee height: 701 km
apogee height: 703 km
right ascension of ascending node: 186.3496°
argument of perigee: 105.3823°
revolutions per day: 14.57132705
mean anomaly at epoch: 254.7510°
orbit number at epoch: 76271

The dashed part of the orbit path shows where the satellite is in the earth's shadow,  

DLR